contact:dominique.lefevre@mio.osupytheas.fr, maurice.libes@osupytheas.fr, didier.mallarino@osupytheas.fr
Project:EMSO http://www.emso-fr.org/EMSO-France
Depth: 2436.0 m
Title:EMSO Ligure Ouest : Data MII capteur AQUADOPP
Date,Latitude,Longitude,X_East,Y_North,Z_Up,Amplitude_X,Amplitude_Y,Amplitude_Z,Batterie,SoundSpeed,Heading,Pitch,Roll,Pressure,TIS,Speed,Direction
, degrees North, degrees East, m.s-1, m.s-1,m.s-1, 1, 1, 1, Volt, m.s-1, degree, degree, degree, dbar, degree_C, m.s-1, degree
2021-08-04T00:04:03,42.805,6.029,-0.002,-0.023,-0.011,101.0,101.0,102.0,13.4,1505.2,325.7,-0.8,1.8,2470.629,13.28,0.023,185.0
2021-08-04T00:07:03,42.805,6.029,-0.005,-0.021,-0.011,101.0,101.0,101.0,13.4,1505.2,329.4,-0.8,1.8,2470.628,13.29,0.021,193.4
2021-08-04T00:10:03,42.805,6.029,-0.022,0.006,-0.037,102.0,103.0,99.0,13.4,1505.2,330.5,-0.8,1.8,2470.604,13.29,0.022,285.3
2021-08-04T00:13:03,42.805,6.029,-0.018,-0.009,-0.013,102.0,101.0,100.0,13.4,1505.2,330.2,-0.7,1.8,2470.612,13.29,0.02,243.4
2021-08-04T00:16:03,42.805,6.029,-0.005,0.014,0.01,101.0,101.0,101.0,13.3,1505.2,329.4,-0.7,1.8,2470.586,13.29,0.014,340.4
2021-08-04T00:19:03,42.805,6.029,-0.013,-0.004,-0.017,102.0,102.0,101.0,13.4,1505.2,330.0,-0.8,1.8,2470.607,13.29,0.013,252.9
2021-08-04T00:22:03,42.805,6.029,-0.016,-0.008,-0.029,102.0,101.0,100.0,13.4,1505.2,326.3,-0.7,1.8,2470.594,13.29,0.017,243.4
2021-08-04T00:25:03,42.805,6.029,-0.004,0.014,-0.013,102.0,101.0,101.0,13.4,1505.2,325.5,-0.7,1.8,2470.605,13.29,0.014,344.1
2021-08-04T00:28:03,42.805,6.029,-0.027,-0.005,-0.05,102.0,101.0,101.0,13.3,1505.2,326.7,-0.7,1.8,2470.585,13.29,0.027,259.5
2021-08-04T00:31:03,42.805,6.029,-0.017,0.008,0.0,100.0,103.0,100.0,13.4,1505.2,328.6,-0.8,1.9,2470.622,13.29,0.018,295.2
2021-08-04T00:34:03,42.805,6.029,-0.019,-0.015,-0.019,100.0,101.0,102.0,13.3,1505.2,325.7,-0.7,1.8,2470.576,13.29,0.024,231.7
2021-08-04T00:37:03,42.805,6.029,-0.027,-0.002,-0.02,102.0,101.0,101.0,13.4,1505.2,329.1,-0.8,1.8,2470.582,13.29,0.027,265.8
2021-08-04T00:40:03,42.805,6.029,-0.023,-0.002,-0.013,101.0,102.0,100.0,13.3,1505.2,325.9,-0.7,1.8,2470.609,13.29,0.023,265.0
2021-08-04T00:43:03,42.805,6.029,-0.001,-0.011,-0.03,101.0,101.0,101.0,13.3,1505.2,325.9,-0.8,1.8,2470.581,13.29,0.011,185.2
2021-08-04T00:46:03,42.805,6.029,-0.016,0.0,0.016,102.0,100.0,101.0,13.4,1505.2,330.4,-0.8,1.8,2470.595,13.29,0.016,270.0
2021-08-04T00:49:03,42.805,6.029,-0.025,-0.024,-0.01,100.0,103.0,99.0,13.4,1505.2,327.4,-0.8,1.8,2470.596,13.29,0.034,226.2
2021-08-04T00:52:03,42.805,6.029,-0.024,-0.006,-0.019,101.0,100.0,101.0,13.4,1505.2,326.5,-0.8,1.8,2470.593,13.29,0.024,256.0
2021-08-04T00:55:03,42.805,6.029,-0.009,-0.009,0.005,101.0,102.0,101.0,13.3,1505.2,327.3,-0.7,1.8,2470.585,13.29,0.012,225.0
2021-08-04T00:58:03,42.805,6.029,-0.015,0.006,-0.03,102.0,105.0,100.0,13.4,1505.2,326.8,-0.8,1.8,2470.627,13.29,0.016,291.8
2021-08-04T01:04:03,42.805,6.029,-0.009,-0.002,0.004,103.0,104.0,102.0,13.4,1505.2,327.5,-0.7,1.8,2470.671,13.29,0.009,257.5
2021-08-04T01:07:03,42.805,6.029,-0.014,0.013,-0.009,102.0,102.0,101.0,13.4,1505.2,328.3,-0.8,1.8,2470.603,13.29,0.019,312.9
2021-08-04T01:10:03,42.805,6.029,-0.035,-0.002,0.011,103.0,101.0,101.0,13.4,1505.2,327.5,-0.8,1.9,2470.64,13.29,0.035,266.7
2021-08-04T01:13:03,42.805,6.029,-0.005,-0.001,-0.009,100.0,100.0,102.0,13.4,1505.2,325.6,-0.7,1.8,2470.592,13.29,0.005,258.7
2021-08-04T01:16:03,42.805,6.029,-0.032,0.0,-0.028,101.0,101.0,101.0,13.4,1505.2,328.4,-0.8,1.8,2470.642,13.29,0.032,270.0
2021-08-04T01:19:03,42.805,6.029,-0.002,-0.014,-0.029,99.0,104.0,103.0,13.4,1505.2,329.2,-0.7,1.8,2470.638,13.3,0.014,188.1
2021-08-04T01:22:03,42.805,6.029,-0.001,0.007,-0.02,102.0,103.0,101.0,13.4,1505.2,326.4,-0.7,1.8,2470.586,13.3,0.007,351.9
2021-08-04T01:25:03,42.805,6.029,-0.009,-0.01,-0.032,101.0,101.0,100.0,13.4,1505.2,328.5,-0.7,1.8,2470.627,13.3,0.013,222.0
2021-08-04T01:28:03,42.805,6.029,-0.009,-0.003,-0.013,101.0,100.0,101.0,13.4,1505.2,327.0,-0.8,1.9,2470.581,13.3,0.009,251.6
2021-08-04T01:31:03,42.805,6.029,-0.02,-0.001,-0.034,102.0,100.0,101.0,13.3,1505.2,327.3,-0.8,1.8,2470.584,13.3,0.02,267.1
2021-08-04T01:34:03,42.805,6.029,-0.026,0.0,-0.026,100.0,100.0,101.0,13.4,1505.2,325.3,-0.8,1.8,2470.63,13.3,0.026,270.0
2021-08-04T01:37:03,42.805,6.029,-0.004,-0.006,0.002,105.0,107.0,100.0,13.4,1505.2,327.1,-0.7,1.9,2470.587,13.3,0.007,213.7
2021-08-04T01:40:03,42.805,6.029,-0.018,0.0,-0.002,101.0,103.0,101.0,13.3,1505.2,326.7,-0.7,1.8,2470.618,13.3,0.018,270.0
2021-08-04T01:43:03,42.805,6.029,-0.006,-0.01,-0.023,102.0,102.0,99.0,13.4,1505.2,325.7,-0.8,1.9,2470.635,13.3,0.011,211.0
2021-08-04T01:46:03,42.805,6.029,-0.025,-0.002,-0.012,103.0,99.0,101.0,13.4,1505.2,325.6,-0.7,1.8,2470.574,13.3,0.025,265.4
2021-08-04T01:49:03,42.805,6.029,0.001,-0.001,0.003,102.0,100.0,100.0,13.3,1505.2,325.3,-0.7,1.8,2470.569,13.29,0.001,135.0
2021-08-04T01:52:03,42.805,6.029,-0.007,-0.014,-0.006,104.0,101.0,99.0,13.4,1505.2,330.7,-0.7,1.8,2470.574,13.29,0.015,206.6
2021-08-04T01:55:03,42.805,6.029,-0.008,0.006,-0.046,101.0,101.0,100.0,13.3,1505.2,326.3,-0.7,1.8,2470.622,13.29,0.01,306.9
2021-08-04T01:58:03,42.805,6.029,-0.014,-0.009,-0.007,100.0,101.0,101.0,13.4,1505.2,325.6,-0.8,1.8,2470.59,13.29,0.016,237.3
2021-08-04T02:04:03,42.805,6.029,-0.019,0.0,-0.021,101.0,101.0,102.0,13.3,1505.2,330.0,-0.7,1.8,2470.647,13.29,0.019,270.0
2021-08-04T02:07:03,42.805,6.029,-0.026,-0.003,-0.005,100.0,103.0,101.0,13.3,1505.2,326.4,-0.8,1.8,2470.641,13.29,0.026,263.4
2021-08-04T02:10:03,42.805,6.029,-0.012,-0.007,-0.041,101.0,102.0,102.0,13.3,1505.2,328.6,-0.7,1.8,2470.645,13.29,0.013,239.7
2021-08-04T02:13:03,42.805,6.029,-0.009,-0.008,-0.016,100.0,104.0,101.0,13.4,1505.2,326.3,-0.7,1.8,2470.639,13.29,0.012,228.4
2021-08-04T02:16:03,42.805,6.029,0.001,0.004,-0.012,102.0,100.0,101.0,13.3,1505.2,325.0,-0.8,1.8,2470.59,13.29,0.004,14.0
2021-08-04T02:19:03,42.805,6.029,-0.016,-0.012,-0.006,102.0,102.0,101.0,13.3,1505.2,325.5,-0.8,1.8,2470.602,13.29,0.02,233.1
2021-08-04T02:22:03,42.805,6.029,-0.001,0.0,-0.002,100.0,101.0,102.0,13.4,1505.2,327.4,-0.8,1.8,2470.585,13.29,0.001,270.0
2021-08-04T02:25:03,42.805,6.029,-0.024,-0.008,-0.028,101.0,101.0,100.0,13.4,1505.2,325.5,-0.7,1.8,2470.635,13.29,0.025,251.6
2021-08-04T02:28:03,42.805,6.029,0.001,-0.005,-0.011,100.0,103.0,101.0,13.4,1505.2,327.7,-0.8,1.8,2470.646,13.29,0.005,168.7
2021-08-04T02:31:03,42.805,6.029,-0.012,0.002,-0.024,100.0,100.0,100.0,13.4,1505.2,330.6,-0.8,1.8,2470.573,13.29,0.012,279.5
2021-08-04T02:34:03,42.805,6.029,-0.005,0.014,0.003,101.0,102.0,100.0,13.4,1505.2,325.0,-0.7,1.8,2470.605,13.29,0.014,340.4
2021-08-04T02:37:03,42.805,6.029,0.002,0.001,-0.01,101.0,102.0,100.0,13.3,1505.2,328.6,-0.7,1.8,2470.619,13.29,0.002,63.4
2021-08-04T02:40:03,42.805,6.029,0.018,-0.025,0.011,101.0,100.0,101.0,13.4,1505.2,327.3,-0.7,1.8,2470.654,13.29,0.03,144.2
2021-08-04T02:43:03,42.805,6.029,-0.005,-0.006,0.0,102.0,101.0,100.0,13.4,1505.2,329.3,-0.8,1.8,2470.598,13.29,0.007,219.8
2021-08-04T02:46:03,42.805,6.029,-0.019,-0.001,-0.015,102.0,100.0,101.0,13.4,1505.2,329.1,-0.8,1.8,2470.594,13.29,0.019,267.0
2021-08-04T02:49:03,42.805,6.029,-0.018,-0.002,-0.007,103.0,100.0,100.0,13.3,1505.2,325.5,-0.7,1.8,2470.608,13.29,0.018,263.7
2021-08-04T02:52:03,42.805,6.029,0.001,0.007,-0.022,102.0,100.0,100.0,13.3,1505.2,327.2,-0.8,1.8,2470.588,13.29,0.007,8.1
2021-08-04T02:55:03,42.805,6.029,-0.009,0.002,0.006,102.0,100.0,100.0,13.4,1505.2,328.6,-0.7,1.8,2470.615,13.29,0.009,282.5
2021-08-04T02:58:03,42.805,6.029,0.004,0.011,-0.012,103.0,100.0,100.0,13.4,1505.2,325.5,-0.8,1.8,2470.615,13.29,0.011,20.0
2021-08-04T03:04:03,42.805,6.029,-0.002,0.008,-0.004,101.0,101.0,101.0,13.4,1505.2,329.6,-0.8,1.8,2470.647,13.29,0.008,346.0
2021-08-04T03:07:03,42.805,6.029,-0.022,-0.002,-0.017,100.0,101.0,100.0,13.4,1505.2,328.1,-0.7,1.8,2470.647,13.29,0.022,264.8
2021-08-04T03:10:03,42.805,6.029,0.001,-0.013,-0.03,100.0,101.0,102.0,13.3,1505.2,329.0,-0.7,1.8,2470.674,13.29,0.013,175.6
2021-08-04T03:13:03,42.805,6.029,-0.016,-0.011,0.002,99.0,102.0,101.0,13.3,1505.2,324.9,-0.8,1.8,2470.676,13.29,0.019,235.5
2021-08-04T03:16:03,42.805,6.029,0.011,-0.004,-0.018,99.0,101.0,102.0,13.4,1505.2,327.3,-0.8,1.8,2470.648,13.29,0.011,110.0
2021-08-04T03:19:03,42.805,6.029,0.009,-0.01,-0.016,102.0,101.0,100.0,13.4,1505.2,327.9,-0.7,1.8,2470.631,13.29,0.013,138.0
2021-08-04T03:22:03,42.805,6.029,-0.006,0.014,0.013,101.0,101.0,101.0,13.4,1505.2,329.3,-0.7,1.8,2470.624,13.29,0.015,336.8
2021-08-04T03:25:03,42.805,6.029,-0.02,-0.008,0.004,101.0,101.0,101.0,13.3,1505.2,324.9,-0.8,1.8,2470.649,13.29,0.021,248.2
2021-08-04T03:28:03,42.805,6.029,-0.016,0.003,0.0,101.0,101.0,100.0,13.3,1505.2,328.7,-0.8,1.8,2470.628,13.29,0.016,280.6
2021-08-04T03:31:03,42.805,6.029,-0.014,-0.024,-0.007,100.0,101.0,101.0,13.3,1505.2,327.1,-0.7,1.8,2470.66,13.29,0.027,210.3
2021-08-04T03:34:03,42.805,6.029,0.013,-0.015,0.001,101.0,102.0,100.0,13.3,1505.2,325.7,-0.7,1.8,2470.641,13.29,0.019,139.1
2021-08-04T03:37:03,42.805,6.029,-0.001,-0.012,-0.033,101.0,102.0,100.0,13.3,1505.2,328.4,-0.8,1.8,2470.625,13.29,0.012,184.8
2021-08-04T03:40:03,42.805,6.029,-0.003,-0.001,-0.015,101.0,100.0,100.0,13.4,1505.2,326.9,-0.8,1.8,2470.665,13.29,0.003,251.6
2021-08-04T03:43:03,42.805,6.029,-0.011,-0.008,-0.018,100.0,101.0,101.0,13.4,1505.2,328.9,-0.8,1.8,2470.647,13.29,0.013,234.0
2021-08-04T03:46:03,42.805,6.029,-0.026,-0.012,-0.022,99.0,102.0,102.0,13.4,1505.2,327.8,-0.8,1.9,2470.607,13.29,0.028,245.2
2021-08-04T03:49:03,42.805,6.029,-0.005,-0.006,-0.006,100.0,101.0,101.0,13.4,1505.2,326.6,-0.8,1.8,2470.612,13.29,0.007,219.8
2021-08-04T03:52:03,42.805,6.029,0.001,0.001,-0.036,101.0,101.0,101.0,13.4,1505.2,328.9,-0.7,1.8,2470.633,13.29,0.001,45.0
2021-08-04T03:55:03,42.805,6.029,-0.021,0.005,-0.014,101.0,101.0,101.0,13.4,1505.2,327.9,-0.7,1.8,2470.627,13.29,0.021,283.4
2021-08-04T03:58:03,42.805,6.029,0.005,0.015,0.002,100.0,101.0,101.0,13.3,1505.2,329.3,-0.7,1.8,2470.621,13.29,0.015,18.4
2021-08-04T04:04:03,42.805,6.029,-0.005,-0.002,-0.019,99.0,100.0,101.0,13.4,1505.2,328.1,-0.7,1.8,2470.649,13.28,0.005,248.2
2021-08-04T04:07:03,42.805,6.029,-0.002,0.0,-0.006,101.0,102.0,100.0,13.3,1505.2,327.8,-0.8,1.8,2470.657,13.28,0.002,270.0
2021-08-04T04:10:03,42.805,6.029,-0.001,-0.025,-0.013,101.0,101.0,100.0,13.3,1505.2,325.1,-0.7,1.8,2470.627,13.28,0.025,182.3
2021-08-04T04:13:03,42.805,6.029,-0.015,-0.004,-0.015,99.0,106.0,100.0,13.4,1505.2,327.4,-0.8,1.8,2470.668,13.28,0.015,255.1
2021-08-04T04:16:03,42.805,6.029,0.003,0.007,-0.004,100.0,101.0,100.0,13.4,1505.2,324.9,-0.7,1.8,2470.611,13.28,0.007,23.2
2021-08-04T04:19:03,42.805,6.029,0.005,-0.003,-0.032,101.0,101.0,100.0,13.4,1505.2,327.0,-0.8,1.8,2470.651,13.28,0.005,121.0
2021-08-04T04:22:03,42.805,6.029,0.037,-0.003,-0.015,100.0,103.0,101.0,13.3,1505.2,329.1,-0.8,1.8,2470.636,13.28,0.037,94.6
2021-08-04T04:25:03,42.805,6.029,0.009,-0.006,0.005,100.0,103.0,99.0,13.4,1505.2,328.8,-0.8,1.8,2470.642,13.28,0.01,123.7
2021-08-04T04:28:03,42.805,6.029,0.0,0.0,0.018,101.0,102.0,101.0,13.4,1505.2,325.8,-0.8,1.9,2470.608,13.28,0.0,0.0
2021-08-04T04:31:03,42.805,6.029,0.007,-0.025,-0.037,100.0,102.0,101.0,13.4,1505.2,331.1,-0.8,1.9,2470.663,13.28,0.025,164.4
2021-08-04T04:34:03,42.805,6.029,0.005,-0.03,-0.033,101.0,101.0,100.0,13.3,1505.2,327.6,-0.7,1.8,2470.604,13.28,0.03,170.5
2021-08-04T04:37:03,42.805,6.029,-0.002,0.001,0.004,101.0,100.0,100.0,13.3,1505.2,326.0,-0.7,1.8,2470.636,13.28,0.002,296.6
2021-08-04T04:40:03,42.805,6.029,-0.012,-0.007,-0.015,100.0,101.0,100.0,13.4,1505.2,325.5,-0.8,1.8,2470.625,13.28,0.013,239.7
2021-08-04T04:43:03,42.805,6.029,0.0,-0.003,-0.022,101.0,101.0,101.0,13.4,1505.2,324.7,-0.7,1.8,2470.65,13.28,0.003,180.0
2021-08-04T04:46:03,42.805,6.029,-0.009,-0.003,-0.013,101.0,101.0,102.0,13.3,1505.2,330.0,-0.7,1.8,2470.64,13.28,0.009,251.6
2021-08-04T04:49:03,42.805,6.029,0.009,-0.01,-0.005,101.0,102.0,100.0,13.4,1505.2,327.0,-0.7,1.8,2470.617,13.28,0.013,138.0
2021-08-04T04:52:03,42.805,6.029,0.014,-0.004,0.008,101.0,101.0,100.0,13.4,1505.2,326.4,-0.8,1.8,2470.655,13.28,0.014,105.9
2021-08-04T04:55:03,42.805,6.029,-0.001,-0.016,-0.027,102.0,101.0,100.0,13.4,1505.2,327.6,-0.8,1.8,2470.636,13.28,0.016,183.6
2021-08-04T04:58:03,42.805,6.029,0.0,-0.006,-0.028,102.0,101.0,100.0,13.4,1505.2,325.1,-0.7,1.8,2470.601,13.28,0.006,180.0
2021-08-04T05:04:03,42.805,6.029,0.014,-0.025,0.003,102.0,102.0,101.0,13.4,1505.2,327.3,-0.7,1.8,2470.655,13.28,0.028,150.7
2021-08-04T05:07:03,42.805,6.029,0.022,-0.022,-0.011,100.0,104.0,101.0,13.4,1505.2,328.7,-0.8,1.8,2470.651,13.28,0.031,135.0
2021-08-04T05:10:03,42.805,6.029,0.005,-0.012,-0.008,100.0,103.0,101.0,13.3,1505.2,324.9,-0.8,1.8,2470.65,13.28,0.013,157.4
2021-08-04T05:13:03,42.805,6.029,-0.002,-0.001,0.008,101.0,101.0,101.0,13.4,1505.2,327.0,-0.8,1.8,2470.631,13.28,0.002,243.4
2021-08-04T05:16:03,42.805,6.029,0.008,0.003,-0.016,100.0,101.0,101.0,13.4,1505.2,326.1,-0.7,1.8,2470.631,13.28,0.008,69.4
2021-08-04T05:19:03,42.805,6.029,0.011,-0.012,-0.016,101.0,100.0,100.0,13.3,1505.2,330.4,-0.7,1.8,2470.632,13.28,0.016,137.5
2021-08-04T05:22:03,42.805,6.029,-0.011,-0.017,0.019,101.0,102.0,100.0,13.4,1505.2,325.8,-0.8,1.8,2470.686,13.28,0.02,212.9
2021-08-04T05:25:03,42.805,6.029,0.029,0.0,0.018,100.0,101.0,100.0,13.3,1505.2,326.3,-0.7,1.9,2470.637,13.28,0.028,90.0
2021-08-04T05:28:03,42.805,6.029,0.009,-0.008,-0.008,102.0,101.0,101.0,13.4,1505.2,326.4,-0.7,1.9,2470.605,13.28,0.012,131.6
2021-08-04T05:31:03,42.805,6.029,0.043,-0.027,-0.029,101.0,100.0,100.0,13.4,1505.2,325.6,-0.7,1.8,2470.621,13.28,0.05,122.1
2021-08-04T05:34:03,42.805,6.029,0.022,-0.007,-0.013,101.0,100.0,100.0,13.3,1505.2,329.9,-0.8,1.8,2470.604,13.28,0.023,107.6
2021-08-04T05:37:03,42.805,6.029,-0.013,-0.021,-0.005,100.0,101.0,101.0,13.4,1505.2,327.4,-0.8,1.8,2470.598,13.28,0.024,211.8
2021-08-04T05:40:03,42.805,6.029,0.018,-0.009,-0.012,101.0,101.0,101.0,13.3,1505.2,324.8,-0.8,1.8,2470.624,13.28,0.02,116.6
2021-08-04T05:43:03,42.805,6.029,-0.003,-0.011,-0.001,101.0,100.0,101.0,13.3,1505.2,330.4,-0.8,1.9,2470.625,13.28,0.011,195.3
2021-08-04T05:46:03,42.805,6.029,0.025,-0.015,0.008,99.0,103.0,101.0,13.4,1505.2,328.4,-0.7,1.8,2470.577,13.28,0.029,121.0
2021-08-04T05:49:03,42.805,6.029,0.0,-0.014,-0.02,101.0,102.0,101.0,13.4,1505.2,329.3,-0.7,1.8,2470.639,13.28,0.014,180.0
2021-08-04T05:52:03,42.805,6.029,0.028,-0.021,-0.023,101.0,101.0,100.0,13.4,1505.2,327.7,-0.8,1.8,2470.641,13.28,0.035,126.9
2021-08-04T05:55:03,42.805,6.029,0.008,-0.03,-0.017,101.0,102.0,100.0,13.4,1505.2,328.8,-0.7,1.8,2470.612,13.28,0.031,165.1
2021-08-04T05:58:03,42.805,6.029,-0.012,0.004,-0.025,100.0,102.0,101.0,13.3,1505.2,328.3,-0.7,1.8,2470.612,13.28,0.012,288.4
2021-08-04T06:04:03,42.805,6.029,0.007,-0.007,0.013,102.0,100.0,101.0,13.4,1505.2,329.6,-0.7,1.9,2470.646,13.28,0.009,135.0
2021-08-04T06:07:03,42.805,6.029,-0.004,-0.022,-0.005,101.0,101.0,102.0,13.4,1505.2,328.8,-0.8,1.8,2470.598,13.28,0.022,190.3
2021-08-04T06:10:03,42.805,6.029,-0.006,-0.009,-0.046,101.0,102.0,101.0,13.4,1505.2,327.8,-0.7,1.8,2470.663,13.28,0.01,213.7
2021-08-04T06:13:03,42.805,6.029,0.0,-0.001,-0.011,101.0,101.0,101.0,13.4,1505.2,329.4,-0.8,1.8,2470.632,13.28,0.001,180.0
2021-08-04T06:16:03,42.805,6.029,-0.006,-0.009,-0.009,100.0,102.0,101.0,13.4,1505.2,328.2,-0.8,1.8,2470.586,13.28,0.01,213.7
2021-08-04T06:19:03,42.805,6.029,0.011,-0.016,-0.006,101.0,102.0,100.0,13.4,1505.2,327.8,-0.7,1.8,2470.61,13.28,0.019,145.5
2021-08-04T06:22:03,42.805,6.029,-0.016,0.005,0.015,100.0,103.0,101.0,13.3,1505.2,327.8,-0.8,1.8,2470.619,13.28,0.016,287.4
2021-08-04T06:25:03,42.805,6.029,0.011,-0.025,0.007,99.0,102.0,100.0,13.4,1505.2,324.9,-0.7,1.8,2470.609,13.28,0.027,156.3
2021-08-04T06:28:03,42.805,6.029,0.029,0.002,0.003,101.0,101.0,101.0,13.4,1505.2,328.6,-0.7,1.8,2470.608,13.28,0.029,86.1
2021-08-04T06:31:03,42.805,6.029,0.001,-0.017,-0.009,100.0,102.0,100.0,13.4,1505.2,329.5,-0.8,1.8,2470.559,13.28,0.017,176.6
2021-08-04T06:34:03,42.805,6.029,0.007,0.01,0.016,101.0,101.0,100.0,13.3,1505.2,325.5,-0.8,1.8,2470.602,13.28,0.012,35.0
2021-08-04T06:37:03,42.805,6.029,0.019,-0.009,-0.004,102.0,102.0,99.0,13.3,1505.2,330.1,-0.7,1.8,2470.618,13.28,0.021,115.3
2021-08-04T06:40:03,42.805,6.029,0.014,0.011,0.015,102.0,102.0,100.0,13.4,1505.2,328.2,-0.8,1.8,2470.584,13.28,0.017,51.8
2021-08-04T06:43:03,42.805,6.029,0.007,-0.003,-0.015,102.0,102.0,99.0,13.4,1505.2,329.3,-0.7,1.9,2470.587,13.28,0.007,113.2
2021-08-04T06:46:03,42.805,6.029,-0.015,-0.015,-0.001,100.0,103.0,100.0,13.4,1505.2,330.3,-0.8,1.8,2470.603,13.28,0.021,225.0
2021-08-04T06:49:03,42.805,6.029,0.007,-0.001,-0.033,101.0,103.0,101.0,13.4,1505.2,326.8,-0.8,1.8,2470.578,13.28,0.007,98.1
2021-08-04T06:52:03,42.805,6.029,0.026,-0.033,-0.001,101.0,103.0,100.0,13.3,1505.2,326.1,-0.8,1.8,2470.598,13.28,0.042,141.8
2021-08-04T06:55:03,42.805,6.029,-0.022,-0.002,-0.059,102.0,100.0,101.0,13.3,1505.2,325.4,-0.7,1.8,2470.623,13.28,0.022,264.8
2021-08-04T06:58:03,42.805,6.029,0.032,-0.004,0.015,102.0,101.0,102.0,13.4,1505.2,329.7,-0.8,1.8,2470.613,13.28,0.032,97.1
2021-08-04T07:04:03,42.805,6.029,-0.001,-0.018,-0.04,102.0,101.0,101.0,13.3,1505.2,325.4,-0.7,1.8,2470.561,13.28,0.018,183.2
2021-08-04T07:07:03,42.805,6.029,0.024,-0.004,0.011,101.0,103.0,100.0,13.4,1505.2,327.8,-0.7,1.8,2470.596,13.28,0.024,99.5
2021-08-04T07:10:03,42.805,6.029,0.016,-0.02,-0.016,102.0,100.0,101.0,13.4,1505.2,327.0,-0.8,1.8,2470.586,13.28,0.025,141.3
2021-08-04T07:13:03,42.805,6.029,0.029,-0.027,-0.002,101.0,101.0,101.0,13.4,1505.2,326.9,-0.7,1.8,2470.615,13.28,0.039,133.0
2021-08-04T07:16:03,42.805,6.029,0.023,-0.012,0.0,101.0,101.0,101.0,13.4,1505.2,329.7,-0.8,1.8,2470.619,13.28,0.025,117.6
2021-08-04T07:19:03,42.805,6.029,0.034,-0.02,0.002,102.0,101.0,101.0,13.3,1505.2,330.0,-0.8,1.8,2470.578,13.28,0.039,120.5
2021-08-04T07:22:03,42.805,6.029,0.012,-0.032,-0.018,101.0,101.0,101.0,13.4,1505.2,328.7,-0.7,1.8,2470.566,13.28,0.034,159.4
2021-08-04T07:25:03,42.805,6.029,0.031,0.003,0.008,101.0,102.0,101.0,13.3,1505.2,325.9,-0.8,1.8,2470.602,13.28,0.031,84.5
2021-08-04T07:28:03,42.805,6.029,0.049,-0.03,-0.028,101.0,102.0,101.0,13.3,1505.2,325.6,-0.7,1.8,2470.54,13.28,0.057,121.5
2021-08-04T07:31:03,42.805,6.029,0.011,-0.023,-0.012,100.0,102.0,101.0,13.4,1505.2,325.9,-0.7,1.8,2470.565,13.28,0.025,154.4
2021-08-04T07:34:03,42.805,6.029,0.016,-0.01,-0.016,101.0,102.0,100.0,13.3,1505.2,328.6,-0.7,1.8,2470.575,13.28,0.018,122.0
2021-08-04T07:37:03,42.805,6.029,0.031,-0.02,-0.017,103.0,101.0,100.0,13.4,1505.2,328.0,-0.8,1.8,2470.525,13.28,0.036,122.8
2021-08-04T07:40:03,42.805,6.029,0.037,-0.008,-0.036,101.0,101.0,101.0,13.4,1505.2,325.4,-0.8,1.8,2470.55,13.28,0.037,102.2
2021-08-04T07:43:03,42.805,6.029,0.006,-0.025,-0.056,102.0,102.0,101.0,13.4,1505.2,327.8,-0.8,1.8,2470.571,13.28,0.025,166.5
2021-08-04T07:46:03,42.805,6.029,0.009,-0.017,-0.017,102.0,101.0,100.0,13.4,1505.2,328.5,-0.7,1.8,2470.555,13.28,0.019,152.1
2021-08-04T07:49:03,42.805,6.029,-0.004,-0.03,-0.04,101.0,101.0,101.0,13.3,1505.2,327.6,-0.7,1.8,2470.587,13.28,0.03,187.6
2021-08-04T07:52:03,42.805,6.029,0.012,-0.03,-0.032,100.0,102.0,101.0,13.4,1505.2,328.7,-0.7,1.8,2470.586,13.28,0.032,158.2
2021-08-04T07:55:03,42.805,6.029,0.015,-0.028,-0.003,101.0,101.0,101.0,13.4,1505.2,327.4,-0.8,1.8,2470.535,13.28,0.031,151.8
2021-08-04T07:58:03,42.805,6.029,0.024,-0.019,-0.015,101.0,101.0,101.0,13.4,1505.2,325.5,-0.7,1.8,2470.536,13.28,0.03,128.4
2021-08-04T08:04:03,42.805,6.029,-0.001,-0.018,-0.01,101.0,101.0,100.0,13.3,1505.2,330.0,-0.7,1.8,2470.593,13.28,0.018,183.2
2021-08-04T08:07:03,42.805,6.029,0.01,-0.004,-0.025,100.0,101.0,101.0,13.4,1505.2,328.3,-0.8,1.8,2470.586,13.28,0.01,111.8
2021-08-04T08:10:03,42.805,6.029,0.027,-0.03,-0.025,101.0,101.0,101.0,13.4,1505.2,326.2,-0.7,1.8,2470.572,13.28,0.04,138.0
2021-08-04T08:13:03,42.805,6.029,0.009,-0.036,-0.023,101.0,101.0,101.0,13.4,1505.2,327.5,-0.8,1.8,2470.615,13.28,0.037,166.0
2021-08-04T08:16:03,42.805,6.029,0.031,-0.035,-0.039,102.0,100.0,101.0,13.4,1505.2,327.8,-0.7,1.8,2470.543,13.28,0.046,138.5
2021-08-04T08:19:03,42.805,6.029,0.0,0.0,-0.008,102.0,102.0,101.0,13.4,1505.2,328.8,-0.8,1.8,2470.572,13.28,0.0,0.0
2021-08-04T08:22:03,42.805,6.029,0.0,-0.029,-0.043,100.0,102.0,102.0,13.4,1505.2,328.1,-0.7,1.8,2470.606,13.28,0.028,180.0
2021-08-04T08:25:03,42.805,6.029,0.016,-0.016,-0.023,101.0,101.0,101.0,13.3,1505.2,326.2,-0.7,1.8,2470.551,13.28,0.022,135.0
2021-08-04T08:28:03,42.805,6.029,0.025,-0.021,0.01,101.0,102.0,100.0,13.3,1505.2,325.6,-0.8,1.8,2470.583,13.28,0.032,130.0
2021-08-04T08:31:03,42.805,6.029,0.02,-0.018,-0.029,102.0,101.0,100.0,13.3,1505.2,328.6,-0.7,1.8,2470.564,13.28,0.026,132.0
2021-08-04T08:34:03,42.805,6.029,0.019,-0.038,-0.024,101.0,102.0,100.0,13.4,1505.2,329.1,-0.8,1.8,2470.518,13.28,0.042,153.4
2021-08-04T08:37:03,42.805,6.029,-0.008,-0.012,0.007,101.0,101.0,101.0,13.4,1505.2,327.5,-0.8,1.8,2470.568,13.28,0.014,213.7
2021-08-04T08:40:03,42.805,6.029,0.026,-0.008,-0.003,102.0,103.0,100.0,13.3,1505.2,327.7,-0.8,1.8,2470.54,13.28,0.027,107.1
2021-08-04T08:43:03,42.805,6.029,0.022,-0.017,-0.017,101.0,101.0,101.0,13.3,1505.2,327.6,-0.8,1.8,2470.555,13.28,0.027,127.7
2021-08-04T08:46:03,42.805,6.029,0.034,-0.031,0.0,101.0,101.0,101.0,13.3,1505.2,328.8,-0.8,1.8,2470.55,13.28,0.046,132.4
2021-08-04T08:49:03,42.805,6.029,0.008,-0.016,-0.039,101.0,102.0,100.0,13.4,1505.2,325.4,-0.8,1.8,2470.595,13.28,0.017,153.4
2021-08-04T08:52:03,42.805,6.029,0.035,-0.035,-0.017,100.0,102.0,101.0,13.3,1505.2,331.0,-0.8,1.8,2470.554,13.28,0.049,135.0
2021-08-04T08:55:03,42.805,6.029,0.024,-0.01,0.008,102.0,102.0,100.0,13.4,1505.2,328.8,-0.7,1.8,2470.552,13.28,0.026,112.6
2021-08-04T08:58:03,42.805,6.029,0.0,-0.04,-0.007,101.0,101.0,100.0,13.4,1505.2,329.8,-0.8,1.8,2470.523,13.28,0.04,180.0
2021-08-04T09:04:03,42.805,6.029,0.012,-0.014,-0.035,100.0,102.0,102.0,13.4,1505.2,328.5,-0.7,1.8,2470.572,13.28,0.018,139.4
2021-08-04T09:07:03,42.805,6.029,0.012,-0.011,-0.008,102.0,102.0,100.0,13.4,1505.2,328.3,-0.8,1.8,2470.573,13.28,0.016,132.5
2021-08-04T09:10:03,42.805,6.029,0.015,-0.012,-0.029,101.0,100.0,101.0,13.3,1505.2,326.4,-0.8,1.8,2470.594,13.28,0.019,128.7
2021-08-04T09:13:03,42.805,6.029,0.026,-0.031,-0.006,101.0,101.0,100.0,13.4,1505.2,328.6,-0.7,1.8,2470.557,13.28,0.04,140.0
2021-08-04T09:16:03,42.805,6.029,-0.009,-0.019,-0.014,101.0,102.0,101.0,13.4,1505.2,327.3,-0.7,1.8,2470.547,13.28,0.021,205.3
2021-08-04T09:19:03,42.805,6.029,0.017,-0.006,-0.002,102.0,102.0,100.0,13.4,1505.2,327.4,-0.7,1.8,2470.579,13.28,0.018,109.4
2021-08-04T09:22:03,42.805,6.029,0.007,-0.008,0.0,101.0,100.0,100.0,13.4,1505.2,327.0,-0.7,1.8,2470.522,13.28,0.01,138.8
2021-08-04T09:25:03,42.805,6.029,0.011,-0.03,-0.04,102.0,100.0,101.0,13.4,1505.2,327.1,-0.8,1.8,2470.518,13.28,0.031,159.9
2021-08-04T09:28:03,42.805,6.029,0.023,-0.019,0.001,101.0,103.0,101.0,13.4,1505.2,328.4,-0.7,1.8,2470.52,13.28,0.029,129.6
2021-08-04T09:31:03,42.805,6.029,0.027,-0.024,-0.028,102.0,101.0,101.0,13.4,1505.2,326.3,-0.7,1.8,2470.542,13.28,0.036,131.6
2021-08-04T09:34:03,42.805,6.029,0.026,-0.02,-0.027,102.0,101.0,101.0,13.4,1505.2,327.8,-0.7,1.8,2470.521,13.28,0.032,127.6
2021-08-04T09:37:03,42.805,6.029,0.033,-0.009,0.006,101.0,100.0,100.0,13.3,1505.2,325.8,-0.7,1.8,2470.508,13.28,0.034,105.3
2021-08-04T09:40:03,42.805,6.029,0.007,-0.03,-0.037,99.0,102.0,102.0,13.4,1505.2,326.9,-0.8,1.8,2470.525,13.28,0.03,166.9
2021-08-04T09:43:03,42.805,6.029,0.0,-0.029,-0.03,102.0,101.0,101.0,13.3,1505.2,328.5,-0.7,1.8,2470.519,13.28,0.028,180.0
2021-08-04T09:46:03,42.805,6.029,0.021,-0.025,-0.029,103.0,100.0,101.0,13.4,1505.2,325.1,-0.8,1.9,2470.529,13.28,0.032,140.0
2021-08-04T09:49:03,42.805,6.029,-0.01,-0.029,-0.015,101.0,101.0,101.0,13.4,1505.2,325.6,-0.7,1.8,2470.502,13.28,0.03,199.0
2021-08-04T09:52:03,42.805,6.029,0.02,-0.009,-0.023,101.0,101.0,100.0,13.4,1505.2,326.9,-0.7,1.8,2470.518,13.28,0.021,114.2
2021-08-04T09:55:03,42.805,6.029,0.01,-0.026,-0.008,102.0,101.0,100.0,13.3,1505.2,328.1,-0.8,1.8,2470.504,13.28,0.027,159.0